This is the latest recevied weather packets stored in our database for station/object W4MSI. If no packets are shown the sender has not sent any weather packets the latest 10 day(s).
| Time | Temp. | Humidity | Pressure | Rain* | Wind** | Luminosity | Snow |
|---|---|---|---|---|---|---|---|
| 1777939616 | 23.89° C | 45% | 1008.4 hPa | 0 mm | - | 27 W/m² | - |
| 1777939314 | 23.89° C | 44% | 1008.3 hPa | 0 mm | - | 29 W/m² | - |
| 1777939010 | 23.89° C | 44% | 1008.2 hPa | 0 mm | - | 32 W/m² | - |
| 1777938706 | 23.89° C | 43% | 1008.4 hPa | 0 mm | - | 37 W/m² | - |
| 1777938404 | 24.44° C | 43% | 1008.4 hPa | 0 mm | - | 38 W/m² | - |
| 1777938101 | 24.44° C | 42% | 1008.4 hPa | 0 mm | - | 41 W/m² | - |
| 1777937797 | 25° C | 40% | 1008.5 hPa | 0 mm | - | 54 W/m² | - |
| 1777937493 | 25° C | 40% | 1008.6 hPa | 0 mm | - | 63 W/m² | - |
| 1777937191 | 25° C | 39% | 1009 hPa | 0 mm | - | 51 W/m² | - |
| 1777936888 | 25° C | 39% | 1009.1 hPa | 0 mm | - | 82 W/m² | - |
| 1777936584 | 25° C | 39% | 1009.1 hPa | 0 mm | - | 89 W/m² | - |
| 1777936281 | 25.56° C | 39% | 1008.9 hPa | 0 mm | - | 95 W/m² | - |
| 1777935976 | 25.56° C | 38% | 1009 hPa | 0 mm | - | 112 W/m² | - |
| 1777935676 | 25.56° C | 38% | 1009 hPa | 0 mm | - | 127 W/m² | - |
| 1777935373 | 25.56° C | 38% | 1009 hPa | 0 mm | - | 136 W/m² | - |
| 1777935070 | 25.56° C | 38% | 1009.2 hPa | 0 mm | - | 164 W/m² | - |
| 1777934766 | 25.56° C | 38% | 1009.1 hPa | 0 mm | - | 196 W/m² | - |
| 1777934463 | 25.56° C | 38% | 1009.1 hPa | 0 mm | - | 209 W/m² | - |
| 1777934160 | 26.11° C | 41% | 1009 hPa | 0 mm | - | 96 W/m² | - |
| 1777933856 | 26.11° C | 41% | 1009.2 hPa | 0 mm | - | 287 W/m² | - |
| 1777933553 | 26.11° C | 40% | 1009.1 hPa | 0 mm | - | 289 W/m² | - |
| 1777933250 | 25.56° C | 39% | 1009.1 hPa | 0 mm | - | 309 W/m² | - |
| 1777932948 | 25.56° C | 39% | 1009 hPa | 0 mm | - | 325 W/m² | - |
| 1777932644 | 26.11° C | 38% | 1009.1 hPa | 0 mm | - | 327 W/m² | - |
| 1777932341 | 25.56° C | 39% | 1009.3 hPa | 0 mm | - | 345 W/m² | - |
* Rain latest hour (hover to see other rain measurements)
** Current wind speed in m/s (hover to see current wind gust speed)